OE6ATD-13 Weather Reports


time (UTC)temp
F
wind
direction
speed
knots
gust
knots
rain 1hr
in
rain 24hr
in
rain mn
in
humidity
%
barometer
mb
20260506165527 72 188 0.9 5.2 0.00 0.00 0.00 52 1007.7
20260506164522 70 258 0.9 3.5 0.00 0.00 0.00 54 1007.7
20260506163519 69 258 2.6 8.7 0.00 0.00 0.00 54 1007.8
20260506162530 70 267 2.6 8.7 0.00 0.00 0.00 53 1008.0
20260506161525 70 225 2.6 6.1 0.00 0.00 0.00 54 1008.2
20260506160521 69 180 5.2 6.1 0.00 0.00 0.00 55 1008.3
20260506155517 69 233 1.7 7.8 0.00 0.00 0.00 55 1008.1
20260506154528 69 182 1.7 5.2 0.00 0.00 0.00 55 1008.3
20260506153523 69 193 1.7 7.8 0.00 0.00 0.00 55 1008.3
20260506152519 70 206 3.5 7.8 0.00 0.00 0.00 54 1008.3
20260506151516 70 202 1.7 4.3 0.00 0.00 0.00 53 1008.3
20260506150526 69 0.0 0.0 0.00 0.00 0.00 55 1008.4
20260506145521 69 284 3.5 7.8 0.00 0.00 0.00 54 1008.2
20260506144517 69 298 1.7 5.2 0.00 0.00 0.00 54 1008.3
20260506143528 69 306 3.5 6.1 0.00 0.00 0.00 53 1008.3
20260506142524 69 263 2.6 10.4 0.00 0.00 0.00 53 1008.5
20260506141520 69 309 1.7 6.1 0.00 0.00 0.00 52 1008.4
20260506140515 71 225 5.2 8.7 0.00 0.00 0.00 50 1008.5
20260506135527 72 257 2.6 7.8 0.00 0.00 0.00 47 1008.5
20260506134521 72 248 6.1 16.5 0.00 0.00 0.00 45 1008.4
20260506133517 73 295 3.5 10.4 0.00 0.00 0.00 44 1008.4
20260506132528 73 282 1.7 5.2 0.00 0.00 0.00 43 1008.3
20260506131523 74 261 2.6 7.8 0.00 0.00 0.00 42 1008.4
20260506130520 75 299 5.2 10.4 0.00 0.00 0.00 42 1008.4
20260506125515 74 255 4.3 10.4 0.00 0.00 0.00 42 1008.4
20260506124525 75 308 4.3 9.6 0.00 0.00 0.00 42 1008.5
20260506123521 75 270 5.2 10.4 0.00 0.00 0.00 41 1008.5
20260506122516 75 256 4.3 8.7 0.00 0.00 0.00 42 1008.5
20260506121527 75 267 3.5 8.7 0.00 0.00 0.00 40 1008.6
20260506120523 76 315 5.2 7.8 0.00 0.00 0.00 40 1008.7
20260506115519 76 204 4.3 10.4 0.00 0.00 0.00 41 1008.6
20260506114530 74 216 3.5 10.4 0.00 0.00 0.00 42 1008.6
20260506113525 73 234 6.1 10.4 0.00 0.00 0.00 44 1008.5
20260506112522 71 237 2.6 5.2 0.00 0.00 0.00 50 1008.7
20260506111517 71 262 1.7 7.8 0.00 0.00 0.00 50 1009.0
20260506110528 70 304 3.5 7.8 0.00 0.00 0.00 51 1009.1
20260506105524 70 237 2.6 7.8 0.00 0.00 0.00 51 1009.2
20260506104526 70 232 0.9 4.3 0.00 0.00 0.00 51 1009.3
20260506103522 69 271 1.7 7.0 0.00 0.00 0.00 51 1009.3
20260506102518 69 257 3.5 7.8 0.00 0.00 0.00 51 1009.5
20260506101529 69 229 4.3 9.6 0.00 0.00 0.00 51 1009.5
20260506100525 69 315 1.7 2.6 0.00 0.00 0.00 51 1009.6
20260506095520 70 221 0.9 6.1 0.00 0.00 0.00 50 1009.6
20260506094523 69 275 1.7 7.8 0.00 0.00 0.00 50 1009.6
20260506093519 72 288 3.5 9.6 0.00 0.00 0.00 44 1009.4
20260506092529 74 296 1.7 7.0 0.00 0.00 0.00 42 1009.3
20260506091525 74 268 0.9 5.2 0.00 0.00 0.00 41 1009.2
20260506090521 74 339 0.9 3.5 0.00 0.00 0.00 41 1009.2
20260506085517 74 217 1.7 5.2 0.00 0.00 0.00 39 1009.1
20260506084528 73 317 1.7 7.0 0.00 0.00 0.00 39 1009.0
20260506083524 73 302 1.7 4.3 0.00 0.00 0.00 38 1009.0
20260506082520 73 289 1.7 4.3 0.00 0.00 0.00 37 1009.1
20260506081516 73 268 1.7 8.7 0.00 0.00 0.00 40 1009.2
20260506080527 72 277 2.6 7.8 0.00 0.00 0.00 40 1009.0
20260506073520 73 260 0.9 5.2 0.00 0.00 0.00 41 1009.0
20260506072516 71 315 0.0 2.6 0.00 0.00 0.00 47 1009.0
20260506071527 70 293 0.0 1.7 0.00 0.00 0.00 47 1008.7
20260506070522 71 255 0.9 4.3 0.00 0.00 0.00 46 1008.9
20260506061521 68 293 0.0 3.5 0.00 0.00 0.00 53 1009.1
20260506060517 67 0.0 0.9 0.00 0.00 0.00 56 1009.1
20260506050522 61 0.0 0.0 0.00 0.00 0.00 73 1009.1
20260506044520 55 0.0 0.9 0.00 0.00 0.00 80 1008.9
20260506043516 54 0.0 0.0 0.00 0.00 0.00 80 1008.9
20260506042527 54 0.0 0.0 0.00 0.00 0.00 82 1008.7
20260506041522 53 205 0.0 0.9 0.00 0.00 0.00 82 1008.7
20260506040518 53 0.0 0.0 0.00 0.00 0.00 81 1008.9
20260506035529 53 0.0 0.0 0.00 0.00 0.00 80 1008.8
20260506034515 53 0.0 0.0 0.00 0.00 0.00 78 1008.8
20260506033526 55 0.0 0.0 0.00 0.00 0.00 72 1008.6
20260506032522 56 0.0 0.0 0.00 0.00 0.00 71 1008.7
20260506031518 57 0.0 0.0 0.00 0.00 0.00 71 1008.7
20260506030529 58 0.0 0.0 0.00 0.00 0.00 70 1008.8
20260506025525 58 180 0.0 0.9 0.00 0.00 0.00 70 1008.7
20260506024520 58 0.0 0.0 0.00 0.00 0.00 70 1008.6
20260506023516 58 0.0 0.0 0.00 0.00 0.00 70 1008.7
20260506022527 59 180 0.0 1.7 0.00 0.00 0.00 70 1008.8
20260506021523 59 225 0.0 2.6 0.00 0.00 0.00 69 1008.6
20260506020519 59 270 0.0 2.6 0.00 0.00 0.00 69 1008.5
20260506015529 59 180 0.0 0.9 0.00 0.00 0.00 69 1008.6
20260506014525 59 211 0.0 2.6 0.00 0.00 0.00 69 1008.4
20260506013521 59 0.0 0.0 0.00 0.00 0.00 68 1008.4
20260506012516 59 0.0 1.7 0.00 0.00 0.00 67 1008.3
20260506011519 60 315 0.0 1.7 0.00 0.00 0.00 67 1008.3
20260506010529 60 315 2.6 4.3 0.00 0.00 0.00 68 1008.3
20260506005525 59 234 0.0 2.6 0.00 0.00 0.00 69 1008.2
20260506004521 59 0.0 0.9 0.00 0.00 0.00 68 1008.3
20260506003517 59 270 0.0 5.2 0.00 0.00 0.00 68 1008.2
20260506002528 60 203 0.0 2.6 0.00 0.00 0.00 68 1008.3
20260506001523 60 229 0.9 6.1 0.00 0.00 0.00 68 1008.3
20260506000520 59 315 0.9 2.6 0.00 0.00 0.00 68 1008.4
20260505235516 60 235 0.0 2.6 0.00 0.00 0.00 68 1008.4
20260505234526 60 179 0.9 3.5 0.00 0.00 0.00 69 1008.4
20260505233522 59 190 0.9 3.5 0.00 0.00 0.00 69 1008.6
20260505232518 60 175 2.6 4.3 0.00 0.00 0.00 69 1008.5
20260505231529 60 171 0.9 5.2 0.00 0.00 0.00 69 1008.6
20260505230525 60 214 1.7 4.3 0.00 0.00 0.00 69 1008.6
20260505225520 60 183 1.7 5.2 0.00 0.00 0.00 69 1008.6
20260505224517 60 205 0.9 5.2 0.00 0.00 0.00 69 1008.6
20260505223527 60 209 0.0 4.3 0.00 0.00 0.00 69 1008.5
20260505222523 60 217 2.6 5.2 0.00 0.00 0.00 69 1008.6
20260505221519 60 228 2.6 7.8 0.00 0.00 0.00 70 1008.6
20260505220530 59 219 2.6 6.1 0.00 0.00 0.00 70 1008.6
20260505215525 59 223 1.7 5.2 0.00 0.00 0.00 70 1008.5
20260505214521 59 253 0.9 3.5 0.00 0.00 0.00 70 1008.9
20260505213517 60 152 0.9 2.6 0.00 0.00 0.00 70 1008.8
20260505212528 60 242 0.9 6.1 0.00 0.00 0.00 70 1008.8
20260505211524 60 167 0.9 3.5 0.00 0.00 0.00 70 1008.8
20260505210526 60 248 0.0 2.6 0.00 0.00 0.00 70 1008.8
20260505205521 59 236 0.0 1.7 0.00 0.00 0.00 70 1008.9
20260505204517 60 270 0.0 4.3 0.00 0.00 0.00 69 1009.1
20260505203528 59 227 0.9 4.3 0.00 0.00 0.00 70 1009.2
20260505202524 60 95 0.0 1.7 0.00 0.00 0.00 70 1009.2
20260505201519 60 135 0.0 0.9 0.00 0.00 0.00 69 1009.3
20260505200515 60 184 0.0 2.6 0.00 0.00 0.00 68 1009.2
20260505195526 60 171 0.0 1.7 0.00 0.00 0.00 67 1009.2
20260505194521 60 0.0 0.0 0.00 0.00 0.00 66 1009.2
20260505193517 61 218 1.7 5.2 0.00 0.00 0.00 65 1009.1
20260505192528 61 202 0.0 3.5 0.00 0.00 0.00 64 1009.2
20260505191524 61 211 0.9 5.2 0.00 0.00 0.00 64 1009.2
20260505190520 62 207 0.9 6.1 0.00 0.00 0.00 63 1009.2
20260505185515 62 212 2.6 6.1 0.00 0.00 0.00 63 1009.3
20260505184526 62 221 2.6 4.3 0.00 0.00 0.00 62 1009.2
20260505183529 62 274 2.6 7.8 0.00 0.00 0.00 62 1009.2
20260505182524 62 273 2.6 6.1 0.00 0.00 0.00 61 1009.3
20260505181520 62 220 2.6 7.8 0.00 0.00 0.00 61 1009.3
20260505180516 63 182 0.0 1.7 0.00 0.00 0.00 59 1009.4
20260505175527 63 240 0.9 4.3 0.00 0.00 0.00 55 1009.4
20260505174523 64 286 1.7 4.3 0.00 0.00 0.00 54 1009.3
20260505173519 65 246 0.9 6.1 0.00 0.00 0.00 53 1009.5
20260505172529 65 251 2.6 7.8 0.00 0.00 0.00 52 1009.5
20260505171525 66 206 0.9 2.6 0.00 0.00 0.00 51 1009.6
20260505170521 68 261 1.7 5.2 0.00 0.00 0.00 49 1009.6